Time,TemperatureF,DewpointF,PressureIn,WindDirection,WindDirectionDegrees,WindSpeedMPH,WindSpeedGustMPH,Humidity,HourlyPrecipIn,Conditions,Clouds,dailyrainin,SoftwareType,DateUTC
2013-06-18 00:00:00,68.5,66.2,29.21,West,261,0.0,4.0,92,0.00,,,0.02,meteohub,2013-06-18 04:00:00,
2013-06-18 00:01:00,68.5,66.2,29.21,West,261,0.0,2.0,92,0.00,,,0.02,meteohub,2013-06-18 04:01:00,
2013-06-18 00:02:00,68.5,66.2,29.21,West,261,0.0,2.0,92,0.00,,,0.02,meteohub,2013-06-18 04:02:00,
2013-06-18 00:07:00,68.4,66.0,29.21,West,261,0.0,2.0,92,0.00,,,0.00,meteohub,2013-06-18 04:07:00,
2013-06-18 00:12:00,68.4,66.0,29.21,West,261,0.0,0.0,92,0.00,,,0.00,meteohub,2013-06-18 04:12:00,
2013-06-18 00:17:00,68.2,65.8,29.21,West,261,0.0,0.0,92,0.00,,,0.00,meteohub,2013-06-18 04:17:00,
2013-06-18 00:22:00,68.0,65.7,29.21,West,261,0.0,0.0,92,0.00,,,0.00,meteohub,2013-06-18 04:22:00,
2013-06-18 00:27:00,67.8,65.5,29.21,West,261,0.0,0.0,92,0.00,,,0.00,meteohub,2013-06-18 04:27:00,
2013-06-18 00:32:00,67.8,65.5,29.21,West,261,0.0,0.0,92,0.00,,,0.00,meteohub,2013-06-18 04:32:00,
2013-06-18 00:37:00,67.6,65.3,29.21,West,261,0.0,0.0,92,0.00,,,0.00,meteohub,2013-06-18 04:37:00,
2013-06-18 00:42:00,67.5,65.1,29.21,SSW,202,0.0,3.0,92,0.00,,,0.00,meteohub,2013-06-18 04:42:00,
2013-06-18 00:47:00,67.5,65.1,29.21,SW,230,0.0,3.0,92,0.00,,,0.00,meteohub,2013-06-18 04:47:00,
2013-06-18 00:52:00,67.5,65.1,29.21,SW,230,0.0,3.0,92,0.00,,,0.00,meteohub,2013-06-18 04:52:00,
2013-06-18 00:57:00,67.3,64.9,29.20,SW,230,0.0,3.0,92,0.00,,,0.00,meteohub,2013-06-18 04:57:00,
2013-06-18 01:03:00,67.1,64.8,29.20,SW,230,0.0,0.0,92,0.00,,,0.00,meteohub,2013-06-18 05:03:00,
2013-06-18 01:08:00,66.9,64.6,29.20,SW,230,0.0,0.0,92,0.00,,,0.00,meteohub,2013-06-18 05:08:00,
2013-06-18 01:13:00,66.9,64.6,29.19,SW,230,0.0,2.0,92,0.00,,,0.00,meteohub,2013-06-18 05:13:00,
2013-06-18 01:18:00,66.7,64.4,29.20,SW,230,0.0,2.0,92,0.00,,,0.00,meteohub,2013-06-18 05:18:00,
2013-06-18 01:23:00,66.7,64.6,29.20,SW,230,0.0,2.0,93,0.00,,,0.00,meteohub,2013-06-18 05:23:00,
2013-06-18 01:28:00,66.7,64.6,29.20,SW,230,0.0,1.0,93,0.00,,,0.00,meteohub,2013-06-18 05:28:00,
2013-06-18 01:33:00,66.6,64.4,29.19,SW,230,0.0,0.0,93,0.00,,,0.00,meteohub,2013-06-18 05:33:00,
2013-06-18 01:38:00,66.6,64.4,29.19,SW,230,0.0,1.0,93,0.00,,,0.00,meteohub,2013-06-18 05:38:00,
2013-06-18 01:43:00,66.6,64.4,29.19,SW,230,0.0,1.0,93,0.00,,,0.00,meteohub,2013-06-18 05:43:00,
2013-06-18 01:48:00,66.4,64.0,29.19,SW,230,0.0,1.0,92,0.00,,,0.00,meteohub,2013-06-18 05:48:00,
2013-06-18 01:53:00,66.4,64.0,29.18,SW,230,0.0,0.0,92,0.00,,,0.00,meteohub,2013-06-18 05:53:00,
2013-06-18 01:58:00,66.2,63.9,29.19,SW,230,0.0,0.0,92,0.00,,,0.00,meteohub,2013-06-18 05:58:00,
2013-06-18 02:03:00,66.2,63.9,29.18,SW,230,0.0,0.0,92,0.00,,,0.00,meteohub,2013-06-18 06:03:00,
2013-06-18 02:08:00,66.0,63.7,29.18,SW,230,0.0,0.0,92,0.00,,,0.00,meteohub,2013-06-18 06:08:00,
2013-06-18 02:13:00,66.0,63.7,29.18,SW,230,0.0,0.0,92,0.00,,,0.00,meteohub,2013-06-18 06:13:00,
2013-06-18 02:18:00,65.8,63.5,29.18,SW,230,0.0,0.0,92,0.00,,,0.00,meteohub,2013-06-18 06:18:00,
2013-06-18 02:23:00,65.8,63.5,29.18,SW,230,0.0,0.0,92,0.00,,,0.00,meteohub,2013-06-18 06:23:00,
2013-06-18 02:28:00,65.8,63.7,29.18,SW,230,0.0,0.0,93,0.00,,,0.00,meteohub,2013-06-18 06:28:00,
2013-06-18 02:33:00,65.8,63.5,29.17,SW,230,0.0,0.0,92,0.00,,,0.00,meteohub,2013-06-18 06:33:00,
2013-06-18 02:38:00,65.7,63.3,29.17,SW,230,0.0,0.0,92,0.00,,,0.00,meteohub,2013-06-18 06:38:00,
2013-06-18 02:43:00,65.7,63.3,29.17,SW,230,0.0,0.0,92,0.00,,,0.00,meteohub,2013-06-18 06:43:00,
2013-06-18 02:48:00,65.5,63.1,29.17,SW,230,0.0,0.0,92,0.00,,,0.00,meteohub,2013-06-18 06:48:00,
2013-06-18 02:53:00,65.5,63.1,29.16,SW,230,0.0,0.0,92,0.00,,,0.00,meteohub,2013-06-18 06:53:00,
2013-06-18 02:58:00,65.5,63.3,29.17,SW,230,0.0,0.0,93,0.00,,,0.00,meteohub,2013-06-18 06:58:00,
2013-06-18 03:03:00,65.5,63.3,29.16,SW,230,0.0,0.0,93,0.00,,,0.00,meteohub,2013-06-18 07:03:00,
2013-06-18 03:08:00,65.3,63.1,29.16,SW,230,0.0,0.0,93,0.00,,,0.00,meteohub,2013-06-18 07:08:00,
2013-06-18 03:13:00,65.1,63.0,29.16,SW,230,0.0,0.0,93,0.00,,,0.00,meteohub,2013-06-18 07:13:00,
2013-06-18 03:18:00,65.1,63.0,29.16,SW,230,0.0,0.0,93,0.00,,,0.00,meteohub,2013-06-18 07:18:00,
2013-06-18 03:23:00,64.9,62.8,29.16,SW,230,0.0,0.0,93,0.00,,,0.00,meteohub,2013-06-18 07:23:00,
2013-06-18 03:28:00,64.9,62.8,29.16,SW,230,0.0,0.0,93,0.00,,,0.00,meteohub,2013-06-18 07:28:00,
2013-06-18 03:33:00,64.9,62.8,29.16,SW,230,0.0,0.0,93,0.00,,,0.00,meteohub,2013-06-18 07:33:00,
2013-06-18 03:38:00,64.9,62.8,29.16,SW,230,0.0,0.0,93,0.00,,,0.00,meteohub,2013-06-18 07:38:00,
2013-06-18 03:43:00,64.8,62.6,29.16,SW,230,0.0,0.0,93,0.00,,,0.00,meteohub,2013-06-18 07:43:00,
2013-06-18 03:48:00,64.8,62.6,29.16,SW,230,0.0,0.0,93,0.00,,,0.00,meteohub,2013-06-18 07:48:00,
2013-06-18 03:53:00,64.8,63.0,29.16,SW,230,0.0,0.0,94,0.00,,,0.00,meteohub,2013-06-18 07:53:00,
2013-06-18 03:58:00,64.8,63.0,29.16,SW,230,0.0,0.0,94,0.00,,,0.00,meteohub,2013-06-18 07:58:00,
2013-06-18 04:03:00,64.8,63.0,29.16,SW,230,0.0,0.0,94,0.00,,,0.00,meteohub,2013-06-18 08:03:00,
2013-06-18 04:09:00,64.8,63.0,29.16,SW,230,0.0,0.0,94,0.00,,,0.00,meteohub,2013-06-18 08:09:00,
2013-06-18 04:13:00,64.8,63.0,29.16,SW,230,0.0,0.0,94,0.00,,,0.00,meteohub,2013-06-18 08:13:00,
2013-06-18 04:19:00,64.6,62.8,29.16,SW,230,0.0,0.0,94,0.00,,,0.00,meteohub,2013-06-18 08:19:00,
2013-06-18 04:24:00,64.6,62.8,29.16,SW,230,0.0,0.0,94,0.00,,,0.00,meteohub,2013-06-18 08:24:00,
2013-06-18 04:29:00,64.6,62.8,29.16,SW,230,0.0,0.0,94,0.00,,,0.00,meteohub,2013-06-18 08:29:00,
2013-06-18 04:34:00,64.6,62.8,29.16,SW,230,0.0,0.0,94,0.00,,,0.00,meteohub,2013-06-18 08:34:00,
2013-06-18 04:39:00,64.6,62.8,29.16,SW,230,0.0,0.0,94,0.00,,,0.00,meteohub,2013-06-18 08:39:00,
2013-06-18 04:44:00,64.6,62.8,29.16,SW,230,0.0,0.0,94,0.00,,,0.00,meteohub,2013-06-18 08:44:00,
2013-06-18 04:49:00,64.6,62.8,29.15,SW,230,0.0,0.0,94,0.00,,,0.00,meteohub,2013-06-18 08:49:00,
2013-06-18 04:54:00,64.6,62.8,29.16,SW,230,0.0,0.0,94,0.00,,,0.00,meteohub,2013-06-18 08:54:00,
2013-06-18 04:59:00,64.8,63.3,29.16,SW,230,0.0,0.0,95,0.00,,,0.00,meteohub,2013-06-18 08:59:00,
2013-06-18 05:04:00,64.8,63.3,29.16,SW,230,0.0,0.0,95,0.00,,,0.00,meteohub,2013-06-18 09:04:00,
2013-06-18 05:09:00,64.8,63.3,29.15,SW,230,0.0,0.0,95,0.00,,,0.00,meteohub,2013-06-18 09:09:00,
2013-06-18 05:14:00,64.8,63.3,29.16,SW,230,0.0,0.0,95,0.00,,,0.00,meteohub,2013-06-18 09:14:00,
2013-06-18 05:19:00,64.8,63.3,29.16,SW,230,0.0,0.0,95,0.00,,,0.00,meteohub,2013-06-18 09:19:00,
2013-06-18 05:24:00,64.8,63.3,29.16,SW,230,0.0,0.0,95,0.00,,,0.00,meteohub,2013-06-18 09:24:00,
2013-06-18 05:29:00,64.8,63.3,29.16,SW,230,0.0,0.0,95,0.00,,,0.00,meteohub,2013-06-18 09:29:00,
2013-06-18 05:34:00,64.8,63.3,29.16,SW,230,0.0,0.0,95,0.00,,,0.00,meteohub,2013-06-18 09:34:00,
2013-06-18 05:39:00,64.8,63.3,29.16,SW,230,0.0,0.0,95,0.00,,,0.00,meteohub,2013-06-18 09:39:00,
2013-06-18 05:44:00,64.8,63.3,29.16,SW,230,0.0,0.0,95,0.00,,,0.00,meteohub,2013-06-18 09:44:00,
2013-06-18 05:49:00,64.8,63.3,29.16,SW,230,0.0,0.0,95,0.00,,,0.00,meteohub,2013-06-18 09:49:00,
2013-06-18 05:54:00,64.8,63.3,29.16,SW,230,0.0,0.0,95,0.00,,,0.00,meteohub,2013-06-18 09:54:00,
2013-06-18 05:59:00,64.8,63.3,29.16,SW,230,0.0,0.0,95,0.00,,,0.00,meteohub,2013-06-18 09:59:00,
2013-06-18 06:04:00,64.9,63.5,29.16,SW,230,0.0,0.0,95,0.00,,,0.00,meteohub,2013-06-18 10:04:00,
2013-06-18 06:09:00,64.9,63.9,29.16,SW,230,0.0,0.0,96,0.00,,,0.00,meteohub,2013-06-18 10:09:00,
2013-06-18 06:14:00,65.1,64.0,29.16,SW,230,0.0,0.0,96,0.00,,,0.00,meteohub,2013-06-18 10:14:00,
2013-06-18 06:19:00,65.3,64.0,29.16,SW,230,0.0,0.0,96,0.00,,,0.00,meteohub,2013-06-18 10:19:00,
2013-06-18 06:24:00,65.5,64.2,29.16,SW,230,0.0,0.0,96,0.00,,,0.00,meteohub,2013-06-18 10:24:00,
2013-06-18 06:29:00,65.7,64.4,29.16,SW,230,0.0,0.0,96,0.00,,,0.00,meteohub,2013-06-18 10:29:00,
2013-06-18 06:34:00,65.7,64.4,29.16,SW,230,0.0,0.0,96,0.00,,,0.00,meteohub,2013-06-18 10:34:00,
2013-06-18 06:39:00,65.8,64.6,29.16,SW,230,0.0,0.0,96,0.00,,,0.00,meteohub,2013-06-18 10:39:00,
2013-06-18 06:44:00,65.8,64.6,29.16,SW,230,0.0,0.0,96,0.00,,,0.00,meteohub,2013-06-18 10:44:00,
2013-06-18 06:49:00,65.8,64.6,29.16,SW,230,0.0,0.0,96,0.00,,,0.00,meteohub,2013-06-18 10:49:00,
2013-06-18 06:54:00,66.0,64.8,29.17,SW,230,0.0,0.0,96,0.00,,,0.00,meteohub,2013-06-18 10:54:00,
2013-06-18 06:59:00,66.0,64.8,29.17,SW,230,0.0,0.0,96,0.00,,,0.00,meteohub,2013-06-18 10:59:00,
2013-06-18 07:05:00,66.0,64.8,29.17,SW,230,0.0,0.0,96,0.00,,,0.00,meteohub,2013-06-18 11:05:00,
2013-06-18 07:10:00,66.2,64.9,29.17,SW,230,0.0,0.0,96,0.00,,,0.00,meteohub,2013-06-18 11:10:00,
2013-06-18 07:15:00,66.4,65.1,29.17,SW,230,0.0,0.0,96,0.00,,,0.00,meteohub,2013-06-18 11:15:00,
2013-06-18 07:20:00,66.6,65.3,29.16,SW,230,0.0,0.0,96,0.00,,,0.00,meteohub,2013-06-18 11:20:00,
2013-06-18 07:25:00,66.7,65.5,29.16,SW,230,0.0,0.0,96,0.00,,,0.00,meteohub,2013-06-18 11:25:00,
2013-06-18 07:30:00,66.9,65.7,29.16,SW,230,0.0,0.0,96,0.00,,,0.00,meteohub,2013-06-18 11:30:00,
2013-06-18 07:35:00,67.1,65.8,29.16,SW,230,0.0,0.0,96,0.00,,,0.00,meteohub,2013-06-18 11:35:00,
2013-06-18 07:40:00,67.3,66.0,29.16,SW,230,0.0,0.0,96,0.00,,,0.00,meteohub,2013-06-18 11:40:00,
2013-06-18 07:45:00,67.5,66.2,29.16,SW,230,0.0,0.0,96,0.00,,,0.00,meteohub,2013-06-18 11:45:00,
2013-06-18 07:50:00,67.8,66.9,29.16,SW,230,0.0,0.0,97,0.00,,,0.00,meteohub,2013-06-18 11:50:00,
2013-06-18 07:55:00,68.4,67.5,29.16,SW,230,0.0,0.0,97,0.00,,,0.00,meteohub,2013-06-18 11:55:00,
2013-06-18 08:00:00,68.5,67.6,29.16,SW,230,0.0,0.0,97,0.00,,,0.00,meteohub,2013-06-18 12:00:00,
2013-06-18 08:05:00,68.9,68.0,29.17,SW,230,0.0,0.0,97,0.00,,,0.00,meteohub,2013-06-18 12:05:00,
2013-06-18 08:10:00,69.4,68.5,29.17,SW,230,0.0,0.0,97,0.00,,,0.00,meteohub,2013-06-18 12:10:00,
2013-06-18 08:15:00,70.0,69.1,29.17,SW,230,0.0,0.0,97,0.00,,,0.00,meteohub,2013-06-18 12:15:00,
2013-06-18 08:20:00,70.3,69.4,29.17,SW,230,0.0,0.0,97,0.00,,,0.00,meteohub,2013-06-18 12:20:00,
2013-06-18 08:25:00,70.5,69.6,29.17,SW,230,0.0,0.0,97,0.00,,,0.00,meteohub,2013-06-18 12:25:00,
2013-06-18 08:30:00,70.9,70.0,29.17,SW,230,0.0,0.0,97,0.00,,,0.00,meteohub,2013-06-18 12:30:00,
2013-06-18 08:35:00,71.2,70.3,29.17,SW,230,0.0,0.0,97,0.00,,,0.00,meteohub,2013-06-18 12:35:00,
2013-06-18 08:40:00,71.2,70.3,29.18,SW,230,0.0,0.0,97,0.00,,,0.00,meteohub,2013-06-18 12:40:00,
2013-06-18 08:45:00,71.8,70.9,29.18,SW,230,0.0,0.0,97,0.00,,,0.00,meteohub,2013-06-18 12:45:00,
2013-06-18 08:50:00,72.3,71.4,29.17,SE,142,1.0,4.0,97,0.00,,,0.00,meteohub,2013-06-18 12:50:00,
2013-06-18 08:55:00,72.7,71.4,29.17,SE,142,0.0,4.0,96,0.00,,,0.00,meteohub,2013-06-18 12:55:00,
2013-06-18 09:00:00,73.6,72.3,29.17,SE,142,0.0,4.0,96,0.00,,,0.00,meteohub,2013-06-18 13:00:00,
2013-06-18 09:05:00,74.3,72.9,29.17,SE,142,0.0,1.0,95,0.00,,,0.00,meteohub,2013-06-18 13:05:00,
2013-06-18 09:10:00,74.7,72.9,29.17,SE,142,0.0,1.0,94,0.00,,,0.00,meteohub,2013-06-18 13:10:00,
2013-06-18 09:15:00,74.8,72.7,29.17,SE,142,0.0,1.0,93,0.00,,,0.00,meteohub,2013-06-18 13:15:00,
2013-06-18 09:20:00,75.2,72.7,29.17,SE,142,0.0,1.0,92,0.00,,,0.00,meteohub,2013-06-18 13:20:00,
2013-06-18 09:25:00,75.6,72.7,29.17,SE,142,0.0,1.0,91,0.00,,,0.00,meteohub,2013-06-18 13:25:00,
2013-06-18 09:30:00,75.7,72.7,29.17,SE,142,0.0,1.0,90,0.00,,,0.00,meteohub,2013-06-18 13:30:00,
2013-06-18 09:35:00,76.3,73.0,29.17,WSW,242,0.0,3.0,90,0.00,,,0.00,meteohub,2013-06-18 13:35:00,
2013-06-18 09:40:00,76.5,73.0,29.17,WSW,242,0.0,3.0,89,0.00,,,0.00,meteohub,2013-06-18 13:40:00,
2013-06-18 09:46:00,76.5,72.7,29.17,WSW,242,0.0,3.0,88,0.00,,,0.00,meteohub,2013-06-18 13:46:00,
2013-06-18 09:51:00,76.5,72.0,29.17,WSW,242,0.0,2.0,86,0.00,,,0.00,meteohub,2013-06-18 13:51:00,
2013-06-18 09:56:00,76.3,71.8,29.17,WSW,242,0.0,2.0,86,0.00,,,0.00,meteohub,2013-06-18 13:56:00,
2013-06-18 10:01:00,75.9,71.4,29.17,WSW,242,0.0,2.0,86,0.00,,,0.00,meteohub,2013-06-18 14:01:00,
2013-06-18 10:06:00,75.9,71.8,29.17,WSW,242,0.0,1.0,87,0.00,,,0.00,meteohub,2013-06-18 14:06:00,
2013-06-18 10:11:00,75.7,71.6,29.16,WSW,242,0.0,1.0,87,0.00,,,0.00,meteohub,2013-06-18 14:11:00,
2013-06-18 10:16:00,75.6,71.4,29.16,WSW,242,0.0,1.0,87,0.00,,,0.00,meteohub,2013-06-18 14:16:00,
2013-06-18 10:17:00,75.6,71.8,29.16,WSW,242,0.0,1.0,88,0.00,,,0.00,meteohub,2013-06-18 14:17:00,
2013-06-18 10:22:00,75.6,71.8,29.16,WSW,242,0.0,1.0,88,0.00,,,0.00,meteohub,2013-06-18 14:22:00,
2013-06-18 10:27:00,75.7,72.3,29.16,WSW,242,0.0,0.0,89,0.00,,,0.00,meteohub,2013-06-18 14:27:00,
2013-06-18 10:32:00,75.7,72.0,29.16,WSW,242,0.0,0.0,88,0.00,,,0.00,meteohub,2013-06-18 14:32:00,
2013-06-18 10:37:00,75.9,71.8,29.16,NW,320,0.0,1.0,87,0.00,,,0.00,meteohub,2013-06-18 14:37:00,
2013-06-18 10:42:00,76.1,72.3,29.15,NW,320,0.0,1.0,88,0.00,,,0.00,meteohub,2013-06-18 14:42:00,
2013-06-18 10:47:00,76.3,72.5,29.15,NW,321,0.0,1.0,88,0.00,,,0.00,meteohub,2013-06-18 14:47:00,
2013-06-18 10:52:00,76.3,72.1,29.15,NW,320,0.0,1.0,87,0.00,,,0.00,meteohub,2013-06-18 14:52:00,
2013-06-18 10:57:00,76.5,72.3,29.15,NW,320,0.0,1.0,87,0.00,,,0.00,meteohub,2013-06-18 14:57:00,
2013-06-18 11:02:00,76.6,72.9,29.15,NW,320,0.0,1.0,88,0.00,,,0.00,meteohub,2013-06-18 15:02:00,
2013-06-18 11:07:00,76.8,73.0,29.15,NW,320,0.0,1.0,88,0.00,,,0.00,meteohub,2013-06-18 15:07:00,
2013-06-18 11:12:00,77.0,72.9,29.15,NW,320,0.0,2.0,87,0.00,,,0.00,meteohub,2013-06-18 15:12:00,
2013-06-18 11:17:00,77.2,72.7,29.15,NW,321,0.0,2.0,86,0.00,,,0.00,meteohub,2013-06-18 15:17:00,
2013-06-18 11:22:00,77.2,72.7,29.15,NW,320,0.0,2.0,86,0.00,,,0.00,meteohub,2013-06-18 15:22:00,
2013-06-18 11:27:00,77.2,72.7,29.15,NW,321,0.0,2.0,86,0.00,,,0.00,meteohub,2013-06-18 15:27:00,
2013-06-18 11:32:00,77.2,72.7,29.15,NW,320,0.0,0.0,86,0.00,,,0.00,meteohub,2013-06-18 15:32:00,
2013-06-18 11:37:00,77.4,72.5,29.14,NW,321,0.0,0.0,85,0.00,,,0.00,meteohub,2013-06-18 15:37:00,
2013-06-18 11:42:00,77.4,72.9,29.14,NW,321,0.0,0.0,86,0.00,,,0.00,meteohub,2013-06-18 15:42:00,
2013-06-18 11:47:00,77.4,72.9,29.14,NW,321,0.0,0.0,86,0.00,,,0.00,meteohub,2013-06-18 15:47:00,
2013-06-18 11:52:00,77.4,72.9,29.14,NW,320,0.0,0.0,86,0.00,,,0.00,meteohub,2013-06-18 15:52:00,
2013-06-18 11:57:00,77.2,72.7,29.14,NW,321,0.0,0.0,86,0.00,,,0.00,meteohub,2013-06-18 15:57:00,
2013-06-18 12:02:00,77.0,72.5,29.13,NW,321,0.0,0.0,86,0.00,,,0.00,meteohub,2013-06-18 16:02:00,
2013-06-18 12:07:00,76.6,71.8,29.13,NW,320,0.0,0.0,85,0.00,,,0.00,meteohub,2013-06-18 16:07:00,
2013-06-18 12:12:00,76.1,71.6,29.13,NW,323,0.0,4.0,86,0.00,,,0.00,meteohub,2013-06-18 16:12:00,
2013-06-18 12:17:00,75.7,71.2,29.13,NW,323,0.0,4.0,86,0.00,,,0.00,meteohub,2013-06-18 16:17:00,
2013-06-18 12:22:00,75.4,71.2,29.13,NW,323,0.0,4.0,87,0.00,,,0.00,meteohub,2013-06-18 16:22:00,
2013-06-18 12:27:00,75.2,71.1,29.14,NW,323,1.0,3.0,87,0.00,,,0.00,meteohub,2013-06-18 16:27:00,
2013-06-18 12:32:00,74.7,70.5,29.14,NNE,13,3.0,5.0,87,0.05,,,0.05,meteohub,2013-06-18 16:32:00,
2013-06-18 12:37:00,73.0,67.6,29.13,NNE,18,0.0,6.0,83,0.34,,,0.31,meteohub,2013-06-18 16:37:00,
2013-06-18 12:42:00,71.4,66.4,29.14,SSW,210,0.0,6.0,84,0.52,,,0.52,meteohub,2013-06-18 16:42:00,
2013-06-18 12:47:00,70.0,65.3,29.17,SSW,211,0.0,6.0,85,0.54,,,0.54,meteohub,2013-06-18 16:47:00,
2013-06-18 12:52:00,68.9,64.6,29.17,West,265,0.0,4.0,86,0.59,,,0.59,meteohub,2013-06-18 16:52:00,
2013-06-18 12:57:00,67.8,63.9,29.20,WNW,293,4.0,4.0,87,0.62,,,0.61,meteohub,2013-06-18 16:57:00,
2013-06-18 13:02:00,66.6,63.0,29.19,SSE,153,0.0,7.0,88,0.71,,,0.70,meteohub,2013-06-18 17:02:00,
2013-06-18 13:07:00,65.8,62.4,29.19,West,262,0.0,7.0,89,0.87,,,0.85,meteohub,2013-06-18 17:07:00,
2013-06-18 13:12:00,65.5,62.4,29.18,SW,226,0.0,7.0,90,1.00,,,1.00,meteohub,2013-06-18 17:12:00,
2013-06-18 13:18:00,65.1,62.4,29.17,SSW,207,0.0,3.0,91,1.04,,,1.04,meteohub,2013-06-18 17:18:00,
2013-06-18 13:23:00,64.8,62.1,29.17,South,182,0.0,9.0,91,1.05,,,1.05,meteohub,2013-06-18 17:23:00,
2013-06-18 13:28:00,64.6,62.2,29.17,South,182,0.0,9.0,92,1.07,,,1.06,meteohub,2013-06-18 17:28:00,
2013-06-18 13:33:00,64.6,62.4,29.17,South,182,0.0,9.0,93,1.01,,,1.08,meteohub,2013-06-18 17:33:00,
2013-06-18 13:38:00,64.6,62.4,29.15,South,182,0.0,1.0,93,0.71,,,1.10,meteohub,2013-06-18 17:38:00,
2013-06-18 13:43:00,64.6,62.4,29.14,South,182,0.0,3.0,93,0.59,,,1.11,meteohub,2013-06-18 17:43:00,
2013-06-18 13:48:00,64.6,62.8,29.14,WNW,297,2.0,3.0,94,0.57,,,1.12,meteohub,2013-06-18 17:48:00,
2013-06-18 13:53:00,64.8,63.0,29.13,SSW,200,0.0,3.0,94,0.53,,,1.12,meteohub,2013-06-18 17:53:00,
2013-06-18 13:58:00,64.9,63.1,29.11,WSW,252,0.0,3.0,94,0.50,,,1.12,meteohub,2013-06-18 17:58:00,
2013-06-18 14:03:00,65.1,63.7,29.11,WSW,252,0.0,3.0,95,0.39,,,1.12,meteohub,2013-06-18 18:03:00,
2013-06-18 14:08:00,65.5,64.0,29.11,WSW,252,0.0,2.0,95,0.23,,,1.12,meteohub,2013-06-18 18:08:00,
2013-06-18 14:13:00,65.8,64.4,29.10,WSW,252,0.0,1.0,95,0.12,,,1.12,meteohub,2013-06-18 18:13:00,
2013-06-18 14:18:00,66.0,64.6,29.10,WSW,252,0.0,1.0,95,0.08,,,1.12,meteohub,2013-06-18 18:18:00,
2013-06-18 14:23:00,66.2,64.8,29.09,WSW,252,0.0,1.0,95,0.06,,,1.12,meteohub,2013-06-18 18:23:00,
2013-06-18 14:28:00,66.4,65.1,29.09,WSW,252,0.0,0.0,96,0.05,,,1.12,meteohub,2013-06-18 18:28:00,
2013-06-18 14:33:00,66.6,65.3,29.10,WSW,252,0.0,0.0,96,0.04,,,1.12,meteohub,2013-06-18 18:33:00,
2013-06-18 14:38:00,66.7,65.5,29.10,WSW,252,0.0,2.0,96,0.02,,,1.12,meteohub,2013-06-18 18:38:00,
2013-06-18 14:43:00,66.7,65.5,29.10,WSW,252,0.0,2.0,96,0.01,,,1.12,meteohub,2013-06-18 18:43:00,
2013-06-18 14:48:00,66.9,65.7,29.10,WSW,252,0.0,2.0,96,0.00,,,1.12,meteohub,2013-06-18 18:48:00,
2013-06-18 14:53:00,66.9,65.7,29.10,NNW,341,0.0,3.0,96,0.00,,,1.12,meteohub,2013-06-18 18:53:00,
2013-06-18 14:58:00,66.9,65.7,29.10,NNW,341,0.0,3.0,96,0.00,,,1.12,meteohub,2013-06-18 18:58:00,
2013-06-18 15:03:00,67.1,65.8,29.10,NNW,341,0.0,3.0,96,0.00,,,1.12,meteohub,2013-06-18 19:03:00,
2013-06-18 15:08:00,67.3,66.0,29.10,NNW,341,0.0,0.0,96,0.00,,,1.12,meteohub,2013-06-18 19:08:00,
2013-06-18 15:13:00,67.3,66.0,29.10,NNW,341,0.0,0.0,96,0.00,,,1.12,meteohub,2013-06-18 19:13:00,
2013-06-18 15:18:00,67.3,66.0,29.11,NNW,341,0.0,0.0,96,0.00,,,1.12,meteohub,2013-06-18 19:18:00,
2013-06-18 15:23:00,67.3,66.0,29.12,NNW,341,0.0,0.0,96,0.00,,,1.12,meteohub,2013-06-18 19:23:00,
2013-06-18 15:28:00,67.5,66.2,29.12,NNW,341,0.0,0.0,96,0.00,,,1.12,meteohub,2013-06-18 19:28:00,
2013-06-18 15:33:00,67.6,66.4,29.12,NNW,341,0.0,0.0,96,0.00,,,1.12,meteohub,2013-06-18 19:33:00,
2013-06-18 15:38:00,67.6,66.4,29.12,NNW,341,0.0,0.0,96,0.00,,,1.12,meteohub,2013-06-18 19:38:00,
2013-06-18 15:43:00,67.8,66.6,29.11,NNW,341,0.0,0.0,96,0.00,,,1.12,meteohub,2013-06-18 19:43:00,
2013-06-18 15:48:00,67.8,66.6,29.12,NNW,341,0.0,0.0,96,0.00,,,1.12,meteohub,2013-06-18 19:48:00,
2013-06-18 15:53:00,67.8,66.6,29.12,NNW,341,0.0,0.0,96,0.00,,,1.12,meteohub,2013-06-18 19:53:00,
2013-06-18 15:58:00,68.0,66.7,29.12,NNW,341,0.0,0.0,96,0.00,,,1.12,meteohub,2013-06-18 19:58:00,
2013-06-18 16:03:00,67.8,66.6,29.12,NNW,341,0.0,0.0,96,0.00,,,1.12,meteohub,2013-06-18 20:03:00,
2013-06-18 16:08:00,67.8,66.6,29.13,NNW,341,0.0,1.0,96,0.00,,,1.12,meteohub,2013-06-18 20:08:00,
2013-06-18 16:13:00,68.0,66.7,29.13,NNW,341,0.0,1.0,96,0.00,,,1.12,meteohub,2013-06-18 20:13:00,
2013-06-18 16:18:00,68.0,66.7,29.13,NNW,341,0.0,1.0,96,0.00,,,1.12,meteohub,2013-06-18 20:18:00,
2013-06-18 16:23:00,67.8,66.6,29.13,NNW,341,0.0,1.0,96,0.00,,,1.12,meteohub,2013-06-18 20:23:00,
2013-06-18 16:28:00,67.8,66.6,29.13,NNW,341,0.0,1.0,96,0.00,,,1.12,meteohub,2013-06-18 20:28:00,
2013-06-18 16:33:00,67.8,66.6,29.13,NNW,341,0.0,1.0,96,0.00,,,1.12,meteohub,2013-06-18 20:33:00,
2013-06-18 16:38:00,67.6,66.4,29.13,NNW,341,0.0,0.0,96,0.00,,,1.12,meteohub,2013-06-18 20:38:00,
2013-06-18 16:43:00,67.6,66.4,29.13,NNW,341,0.0,0.0,96,0.00,,,1.12,meteohub,2013-06-18 20:43:00,
2013-06-18 16:48:00,67.6,66.4,29.12,NNW,341,0.0,0.0,96,0.00,,,1.12,meteohub,2013-06-18 20:48:00,
2013-06-18 16:53:00,67.6,66.4,29.12,NNW,341,0.0,0.0,96,0.00,,,1.12,meteohub,2013-06-18 20:53:00,
2013-06-18 16:57:00,67.6,66.4,29.12,NNW,341,0.0,0.0,96,0.00,,,1.12,meteohub,2013-06-18 20:57:00,
2013-06-18 17:02:00,67.6,66.4,29.12,NNW,341,0.0,0.0,96,0.00,,,1.12,meteohub,2013-06-18 21:02:00,
2013-06-18 17:07:00,67.6,66.4,29.12,NNW,341,0.0,0.0,96,0.00,,,1.12,meteohub,2013-06-18 21:07:00,
2013-06-18 17:12:00,67.6,66.4,29.11,NNW,341,0.0,0.0,96,0.00,,,1.12,meteohub,2013-06-18 21:12:00,
2013-06-18 17:17:00,67.8,66.6,29.11,NNW,341,0.0,0.0,96,0.00,,,1.12,meteohub,2013-06-18 21:17:00,
2013-06-18 17:22:00,67.8,66.6,29.11,NW,306,0.0,2.0,96,0.01,,,1.13,meteohub,2013-06-18 21:22:00,
2013-06-18 17:27:00,67.6,66.4,29.11,NW,306,0.0,2.0,96,0.01,,,1.13,meteohub,2013-06-18 21:27:00,
2013-06-18 17:32:00,67.5,66.0,29.11,NW,306,0.0,2.0,95,0.01,,,1.13,meteohub,2013-06-18 21:32:00,
2013-06-18 17:37:00,67.3,65.8,29.11,NW,306,0.0,1.0,95,0.01,,,1.13,meteohub,2013-06-18 21:37:00,
2013-06-18 17:42:00,66.9,65.5,29.11,NW,306,0.0,1.0,95,0.01,,,1.13,meteohub,2013-06-18 21:42:00,
2013-06-18 17:47:00,66.7,65.3,29.10,NW,306,0.0,1.0,95,0.01,,,1.13,meteohub,2013-06-18 21:47:00,
2013-06-18 17:48:00,66.7,65.3,29.10,NW,306,0.0,1.0,95,0.01,,,1.13,meteohub,2013-06-18 21:48:00,
2013-06-18 17:57:00,66.6,65.1,29.10,North,0,0.0,1.0,95,0.01,,,1.13,meteohub,2013-06-18 21:57:00,
2013-06-18 18:02:00,66.2,64.8,29.10,North,0,0.0,1.0,95,0.02,,,1.14,meteohub,2013-06-18 22:02:00,
2013-06-18 18:07:00,66.0,64.6,29.10,North,0,1.0,1.0,95,0.02,,,1.14,meteohub,2013-06-18 22:07:00,
2013-06-18 18:12:00,65.8,64.4,29.10,North,0,0.0,1.0,95,0.02,,,1.14,meteohub,2013-06-18 22:12:00,
2013-06-18 18:17:00,65.7,64.2,29.10,North,0,0.0,1.0,95,0.02,,,1.14,meteohub,2013-06-18 22:17:00,
2013-06-18 18:22:00,65.7,64.2,29.10,North,0,0.0,1.0,95,0.01,,,1.14,meteohub,2013-06-18 22:22:00,
2013-06-18 18:27:00,65.5,64.0,29.10,North,0,0.0,0.0,95,0.01,,,1.14,meteohub,2013-06-18 22:27:00,
2013-06-18 18:32:00,65.5,64.0,29.10,North,0,0.0,0.0,95,0.01,,,1.14,meteohub,2013-06-18 22:32:00,
2013-06-18 18:37:00,65.5,64.0,29.10,North,0,0.0,0.0,95,0.01,,,1.14,meteohub,2013-06-18 22:37:00,
2013-06-18 18:42:00,65.5,64.0,29.09,North,0,0.0,0.0,95,0.01,,,1.14,meteohub,2013-06-18 22:42:00,
2013-06-18 18:47:00,65.3,63.9,29.10,North,0,0.0,3.0,95,0.01,,,1.14,meteohub,2013-06-18 22:47:00,
2013-06-18 18:52:00,65.1,63.7,29.09,North,0,0.0,3.0,95,0.01,,,1.14,meteohub,2013-06-18 22:52:00,
2013-06-18 18:57:00,65.1,63.7,29.09,North,0,0.0,3.0,95,0.00,,,1.14,meteohub,2013-06-18 22:57:00,
2013-06-18 19:02:00,64.9,63.5,29.09,North,0,0.0,2.0,95,0.00,,,1.14,meteohub,2013-06-18 23:02:00,
2013-06-18 19:07:00,64.8,63.3,29.09,North,0,0.0,2.0,95,0.00,,,1.14,meteohub,2013-06-18 23:07:00,
2013-06-18 19:12:00,64.8,63.3,29.10,North,0,0.0,2.0,95,0.00,,,1.14,meteohub,2013-06-18 23:12:00,
2013-06-18 19:17:00,64.6,63.1,29.10,North,0,0.0,2.0,95,0.00,,,1.14,meteohub,2013-06-18 23:17:00,
2013-06-18 19:22:00,64.4,63.0,29.10,North,0,0.0,2.0,95,0.00,,,1.14,meteohub,2013-06-18 23:22:00,
2013-06-18 19:27:00,64.2,62.8,29.10,North,0,0.0,2.0,95,0.00,,,1.14,meteohub,2013-06-18 23:27:00,
2013-06-18 19:32:00,64.2,62.8,29.10,North,0,0.0,0.0,95,0.00,,,1.14,meteohub,2013-06-18 23:32:00,
2013-06-18 19:37:00,64.0,62.6,29.10,North,0,0.0,0.0,95,0.00,,,1.14,meteohub,2013-06-18 23:37:00,
2013-06-18 19:42:00,64.0,62.6,29.11,North,0,0.0,0.0,95,0.00,,,1.14,meteohub,2013-06-18 23:42:00,
2013-06-18 19:47:00,64.0,62.6,29.11,North,0,0.0,0.0,95,0.00,,,1.14,meteohub,2013-06-18 23:47:00,
2013-06-18 19:52:00,64.0,62.6,29.11,North,0,0.0,0.0,95,0.00,,,1.14,meteohub,2013-06-18 23:52:00,
2013-06-18 19:57:00,63.9,62.4,29.12,North,0,0.0,0.0,95,0.00,,,1.14,meteohub,2013-06-18 23:57:00,
2013-06-18 20:02:00,63.9,62.4,29.12,North,0,0.0,0.0,95,0.00,,,1.14,meteohub,2013-06-19 00:02:00,
2013-06-18 20:07:00,64.0,62.6,29.12,North,0,0.0,0.0,95,0.00,,,1.14,meteohub,2013-06-19 00:07:00,
2013-06-18 20:12:00,64.0,62.6,29.13,North,0,0.0,0.0,95,0.00,,,1.14,meteohub,2013-06-19 00:12:00,
2013-06-18 20:17:00,64.0,62.6,29.12,North,0,0.0,0.0,95,0.00,,,1.14,meteohub,2013-06-19 00:17:00,
2013-06-18 20:22:00,64.0,62.6,29.13,North,0,0.0,0.0,95,0.00,,,1.14,meteohub,2013-06-19 00:22:00,
2013-06-18 20:27:00,64.0,62.6,29.13,North,0,0.0,0.0,95,0.00,,,1.14,meteohub,2013-06-19 00:27:00,
2013-06-18 20:32:00,64.0,63.0,29.13,North,0,0.0,0.0,96,0.00,,,1.14,meteohub,2013-06-19 00:32:00,
2013-06-18 20:37:00,64.2,63.1,29.13,North,0,0.0,0.0,96,0.00,,,1.14,meteohub,2013-06-19 00:37:00,
2013-06-18 20:42:00,64.2,63.1,29.12,North,0,0.0,0.0,96,0.01,,,1.15,meteohub,2013-06-19 00:42:00,
2013-06-18 20:47:00,64.2,63.1,29.12,North,0,0.0,0.0,96,0.01,,,1.15,meteohub,2013-06-19 00:47:00,
2013-06-18 20:52:00,64.2,63.1,29.13,North,0,0.0,0.0,96,0.01,,,1.15,meteohub,2013-06-19 00:52:00,
2013-06-18 20:57:00,64.2,63.1,29.13,North,0,0.0,0.0,96,0.01,,,1.15,meteohub,2013-06-19 00:57:00,
2013-06-18 21:02:00,64.2,63.1,29.13,North,0,0.0,0.0,96,0.01,,,1.15,meteohub,2013-06-19 01:02:00,
2013-06-18 21:07:00,64.2,63.1,29.12,North,0,0.0,0.0,96,0.01,,,1.15,meteohub,2013-06-19 01:07:00,
2013-06-18 21:12:00,64.2,63.1,29.13,North,0,0.0,0.0,96,0.01,,,1.15,meteohub,2013-06-19 01:12:00,
2013-06-18 21:17:00,64.2,63.1,29.13,North,0,0.0,0.0,96,0.01,,,1.15,meteohub,2013-06-19 01:17:00,
2013-06-18 21:22:00,64.0,63.0,29.13,North,0,0.0,0.0,96,0.01,,,1.15,meteohub,2013-06-19 01:22:00,
2013-06-18 21:27:00,64.0,63.0,29.14,North,0,0.0,0.0,96,0.01,,,1.15,meteohub,2013-06-19 01:27:00,
2013-06-18 21:32:00,64.0,63.0,29.14,North,0,0.0,0.0,96,0.01,,,1.15,meteohub,2013-06-19 01:32:00,
2013-06-18 21:37:00,63.9,62.8,29.14,North,0,0.0,0.0,96,0.01,,,1.15,meteohub,2013-06-19 01:37:00,
2013-06-18 21:42:00,63.7,62.6,29.14,North,0,0.0,0.0,96,0.00,,,1.15,meteohub,2013-06-19 01:42:00,
2013-06-18 21:47:00,63.7,62.6,29.14,North,0,0.0,0.0,96,0.00,,,1.15,meteohub,2013-06-19 01:47:00,
2013-06-18 21:52:00,63.5,62.1,29.14,North,0,0.0,0.0,95,0.00,,,1.15,meteohub,2013-06-19 01:52:00,
2013-06-18 21:57:00,63.3,61.9,29.14,North,0,0.0,0.0,95,0.00,,,1.15,meteohub,2013-06-19 01:57:00,
2013-06-18 22:02:00,63.3,61.9,29.14,North,0,0.0,0.0,95,0.00,,,1.15,meteohub,2013-06-19 02:02:00,
2013-06-18 22:07:00,63.1,62.1,29.15,North,0,0.0,0.0,96,0.00,,,1.15,meteohub,2013-06-19 02:07:00,
2013-06-18 22:12:00,63.1,62.1,29.16,North,0,0.0,0.0,96,0.00,,,1.15,meteohub,2013-06-19 02:12:00,
2013-06-18 22:17:00,63.0,61.9,29.16,North,0,0.0,0.0,96,0.00,,,1.15,meteohub,2013-06-19 02:17:00,
2013-06-18 22:22:00,63.0,61.5,29.16,North,0,0.0,0.0,95,0.00,,,1.15,meteohub,2013-06-19 02:22:00,
2013-06-18 22:27:00,62.8,61.3,29.16,North,0,0.0,0.0,95,0.00,,,1.15,meteohub,2013-06-19 02:27:00,
2013-06-18 22:32:00,62.8,61.3,29.16,North,0,0.0,0.0,95,0.00,,,1.15,meteohub,2013-06-19 02:32:00,
2013-06-18 22:37:00,62.6,61.2,29.16,North,0,0.0,0.0,95,0.00,,,1.15,meteohub,2013-06-19 02:37:00,
2013-06-18 22:42:00,62.4,61.0,29.16,North,0,0.0,0.0,95,0.00,,,1.15,meteohub,2013-06-19 02:42:00,
2013-06-18 22:47:00,62.4,61.3,29.16,North,0,0.0,0.0,96,0.00,,,1.15,meteohub,2013-06-19 02:47:00,
2013-06-18 22:52:00,62.2,61.2,29.16,North,0,0.0,0.0,96,0.00,,,1.15,meteohub,2013-06-19 02:52:00,
2013-06-18 22:57:00,62.2,60.8,29.16,North,0,0.0,0.0,95,0.00,,,1.15,meteohub,2013-06-19 02:57:00,
2013-06-18 23:02:00,62.2,60.8,29.16,North,0,0.0,0.0,95,0.00,,,1.15,meteohub,2013-06-19 03:02:00,
2013-06-18 23:07:00,62.1,61.0,29.16,North,0,0.0,0.0,96,0.00,,,1.15,meteohub,2013-06-19 03:07:00,
2013-06-18 23:12:00,62.1,61.0,29.16,North,0,0.0,0.0,96,0.00,,,1.15,meteohub,2013-06-19 03:12:00,
2013-06-18 23:17:00,62.1,61.0,29.16,North,0,0.0,0.0,96,0.00,,,1.15,meteohub,2013-06-19 03:17:00,
2013-06-18 23:22:00,62.1,61.0,29.16,North,0,0.0,0.0,96,0.00,,,1.15,meteohub,2013-06-19 03:22:00,
2013-06-18 23:27:00,62.1,61.0,29.16,North,0,0.0,0.0,96,0.00,,,1.15,meteohub,2013-06-19 03:27:00,
2013-06-18 23:32:00,62.1,61.0,29.16,North,0,0.0,0.0,96,0.00,,,1.15,meteohub,2013-06-19 03:32:00,
2013-06-18 23:37:00,61.9,60.8,29.17,North,0,0.0,0.0,96,0.00,,,1.15,meteohub,2013-06-19 03:37:00,
2013-06-18 23:42:00,61.9,60.8,29.17,North,0,0.0,0.0,96,0.00,,,1.15,meteohub,2013-06-19 03:42:00,
2013-06-18 23:47:00,61.9,60.8,29.17,North,0,0.0,0.0,96,0.00,,,1.15,meteohub,2013-06-19 03:47:00,
2013-06-18 23:52:00,61.9,60.8,29.17,North,0,0.0,0.0,96,0.00,,,1.15,meteohub,2013-06-19 03:52:00,
2013-06-18 23:57:00,62.1,61.0,29.17,North,0,0.0,0.0,96,0.00,,,1.15,meteohub,2013-06-19 03:57:00,